User: anonymous   Login
Location: Seattle
(47.6064°N, 122.3308°W)
Time: 06:29:55
(UTC-07:00)
Language:

ISS - Orbit

View from above orbital plane
View from above orbital plane
View from above satellite
View from above satellite

Ground track
Ground track

The orbit data is extracted from the following two-line orbital elements,

1 25544U 98067A   19291.51967184  .00016717  00000-0  10270-3 0  9022
2 25544  51.6374 109.7153 0006960 163.0234 197.1151 15.50200240 34386
Epoch (UTC): 18 October 2019 12:28:19
Eccentricity: 0.0006960
inclination: 51.6374°
perigee height: 411 km
apogee height: 421 km
right ascension of ascending node: 109.7153°
argument of perigee: 163.0234°
revolutions per day: 15.50200240
mean anomaly at epoch: 197.1151°
orbit number at epoch: 3438

The dashed part of the orbit path shows where the satellite is in the earth's shadow,  

DLR